Reflectivity
-20 -20 -20 -20 -20 -20 -20 -20 -20 -20 -20 -20 -20 -20 -20 -20 -20 -20 -20 -20 -20 -20 -20 -20 -20 -20 -20 -20 -20 -20 -20 -20 -20 -20 -20 -20 -20 -20 -20 -20 -20 -20 -20
-20 -20 -20 -20 -20 -20 -20 -20 -20 -20 -20 -20 -20 -20 -20 -20 -20 -20 -20 -20 -20 -20 -20 -20 -20 -20 -20 -20 -20 -20 -20 -20 -20 -20 -20 -20 -20 -20 -20 -20 -20 -20 -20
-20 -20 -20 -20 -20 -20 -20 -20 -20 -20 -20 -5 -15 -20 -20 -20 -20 -20 -20 -20 -20 -20 -20 -20 -20 -20 -20 -20 -20 -20 -20 -20 -20 -20 -20 -20 -20 -20 -20 -20 -20 -20 -20
-20 -20 -20 -20 -20 -20 -20 -20 -20 -20 -20 -20 -20 -20 -20 -20 -20 -20 -20 -20 -20 -20 -20 -20 -20 -20 -20 -20 -20 -20 -20 -20 -20 -20 -20 -20 -20 -20 -20 -20 -20 -20 -20
-20 -20 -20 -20 -20 -20 -20 -20 -20 -20 -20 -20 -20 -20 -20 -20 -20 -20 -20 -20 -20 -20 -20 -20 -20 -20 -20 -20 -20 -20 -20 -20 -20 -20 -20 -20 -20 -20 -20 -20 -20 -20 -20
-20 -20 -20 -20 -20 -20 -20 -20 -20 -20 -20 -20 -20 -20 -20 -20 -20 -20 -20 -20 -20 -20 -20 -20 -20 -20 -20 -20 -20 -20 -20 -20 -20 -20 -20 -20 -20 -20 -20 -20 -20 -20 -20
-20 -20 -20 -20 -20 -20 -20 -20 -20 -20 -20 -20 -20 -20 -20 -20 -20 -20 -20 -20 -20 -20 -20 -20 -20 -20 -20 -20 -20 -20 -20 -20 -20 -20 -20 -20 -20 -20 -20 -20 -20 -20 -20
-20 -20 -20 -20 -20 -20 -20 -20 -20 -20 -20 -20 -20 -20 -20 -20 -20 -20 -20 -20 -20 -20 -20 -20 -20 -20 -20 -20 -20 -20 -20 -20 -20 -20 -20 -20 -20 -20 -20 -20 -20 -20 -20
-20 -20 -20 -20 -20 -20 -20 -20 -20 -20 -20 -20 -20 -20 -20 -20 -20 -20 -20 -20 -20 -20 -20 -20 -20 -20 -20 -20 -20 -20 -20 -20 -20 -20 -20 -20 -20 -20 -20 -20 -20 -20 -20
-20 -20 -20 -20 -20 -20 -20 -20 -20 -20 -20 -20 -20 -20 -20 -20 -20 -20 -20 -20 -20 -20 -20 -20 -20 -20 -20 -20 -20 -20 -20 -20 -20 -20 -20 -20 -20 -20 -20 -20 -20 -20 -20
-20 -20 -20 -20 -20 -20 -20 -20 -20 -20 -20 -20 -20 -20 -20 -20 -20 -20 -20 -20 -20 -20 -20 -20 -20 -20 -20 -20 -20 -20 -20 -20 -20 -20 -20 -20 -20 -20 -20 -20 -20 -20 -20
-20 -20 -20 -20 -20 -20 -20 -20 -20 -20 -20 -20 -20 -20 -20 -20 -20 -20 -20 -20 -20 -20 -20 -20 -20 -20 -20 -20 -20 -20 -20 -20 -20 -20 -20 -20 -20 -20 -20 -20 -20 -20 -20
-20 -20 -20 -20 -20 -20 -20 -20 -20 -20 -20 -20 -20 -20 -20 -20 -20 -20 -20 -20 -20 -20 -20 -20 -20 -20 -20 -20 -20 -20 -20 -20 -20 -20 -20 -20 -20 -20 -20 -20 -20 -20 -11
-20 -20 -20 -20 -20 -20 -20 -20 -20 -20 -20 -20 -20 -20 -20 -20 -20 -20 -20 -20 -20 -20 -20 -20 -20 -20 -20 -20 -20 -20 -20 -20 -20 -20 -20 -20 -20 -20 -20 -20 -4 7 9
-20 -20 -20 -20 -20 -20 -20 -20 -20 -20 -20 -20 -20 -20 -20 -20 -20 -20 -20 -20 -20 -20 -20 -20 -20 -20 -20 -20 -20 -20 -20 -20 -20 -20 -20 -20 -20 -20 -20 -3 2 1 12
-20 -20 -20 -20 -20 -20 -20 -20 -20 -20 -20 -20 -20 -20 -20 -20 -20 -20 -20 -20 -20 -20 -20 -20 -20 -20 -20 -20 -20 -20 -20 -20 -20 -20 -20 -20 -20 -20 -20 -20 2 9 7
-20 -20 -20 -20 -20 -20 -20 -20 -20 -20 -20 -20 -20 -20 -20 -20 -20 -20 -20 -20 -20 -20 -20 -20 -20 -20 -20 -20 -20 -20 -20 -20 -20 -20 -20 -20 -20 -20 -20 -20 3 -12 16
-20 -20 -20 -20 -20 -20 -20 -20 -20 -20 -20 -20 -20 -20 -20 -20 -20 -20 -20 -20 -20 -20 -20 -20 -20 -20 -20 -20 -20 -20 -20 -20 -20 -20 -20 -20 -20 -20 5 7 9 14 -4
-20 -20 -20 -20 -20 -20 -20 -20 -20 -20 -20 -20 -20 -20 -20 -20 -20 -20 -20 -20 -20 -20 -20 -20 -20 -20 -20 -20 -20 -20 -20 -20 -20 -20 -20 -12 1 4 11 13 9 -19 -20
-20 -20 -20 -20 -20 -20 -20 -20 -20 -20 -20 -20 -20 -20 -20 -20 -20 -20 -20 -20 -20 -20 -20 -20 -20 -20 -20 -20 -20 -20 -20 -20 -20 -20 3 -19 -14 10 16 2 -5 -2 -9
-20 -20 -20 -20 -20 -20 -20 -20 -20 -20 -20 -20 -20 -20 -20 -20 -20 -20 -20 -20 -20 -20 -20 -20 -20 -20 -20 -20 -20 -20 -4 0 2 7 -1 2 -20 14 -17 -12 -14 5 6
-20 -20 -20 -20 -20 -20 -20 -20 -20 -20 -20 -20 -20 -20 -20 -20 -20 -20 -20 -20 -20 -20 -20 -20 -20 -20 -20 -20 -20 -20 1 1 6 7 5 2 17 -11 -20 -10 -20 -16 -3
-20 -20 -20 -20 -20 -20 -20 -20 -20 -20 -20 -20 -20 -20 -20 -20 -20 -20 -20 -20 -20 -20 -20 -20 -20 -20 -20 -20 -20 -20 -20 -15 7 3 7 17 -19 -20 -20 -20 4 -20 -20
-20 -20 -20 -20 -20 -20 -20 -20 -20 -20 -20 -20 -20 -20 -20 -20 -20 -20 -20 -20 -20 -20 -20 -20 -20 -20 -20 -20 -20 -18 6 6 7 12 10 -20 -20 -20 -20 -20 -20 -20 -8
-20 -20 -20 -20 -20 -20 -20 -20 -20 -20 -20 -20 -20 -20 -20 -20 -20 -20 -20 -20 -20 -20 -20 -20 -20 -15 -16 -20 3 6 1 5 12 11 -20 -20 -20 -14 -6 -20 -20 -20 -18
-20 -20 -20 -20 -20 -20 -20 -20 -20 -20 -20 -20 -20 -20 -20 -20 -20 -20 -20 -20 -20 -20 -20 -20 -20 -20 -8 -20 4 -20 7 14 1 -7 -15 -12 3 5 -2 -3 -10 -20 -14
Wind_Speed
7 6 6 9 9 10 11 11 11 11 9 8 8 8 8 8 8 9 10 10 9 10 9 7 8 8 7 8 10 8 10 8 9 8 8 9 13 11 9 10 11 13 13
11 9 9 10 11 12 12 12 12 11 10 8 8 8 8 8 8 8 9 9 10 11 9 9 8 9 7 9 9 9 8 7 8 9 10 7 8 6 13 12 10 14 11
13 12 12 12 11 13 12 12 12 13 10 11 9 8 8 6 7 6 6 8 10 11 10 10 9 8 7 6 8 8 10 7 7 10 8 7 7 13 9 11 10 12 12
14 12 13 12 12 11 11 12 12 12 10 10 9 11 8 8 6 6 6 6 9 9 10 9 9 8 7 8 7 8 8 8 7 7 7 10 12 12 11 5 11 11 12
14 14 13 12 12 11 10 11 12 12 11 10 10 8 9 7 5 5 6 6 6 8 10 9 8 8 6 7 9 8 9 7 8 7 8 9 8 11 12 15 9 10 9
15 14 12 12 11 10 10 10 12 12 11 11 11 11 10 8 6 6 5 5 5 5 8 9 8 8 8 8 7 8 9 8 8 7 9 9 10 10 11 14 14 15 11
16 14 14 12 11 10 10 10 11 12 11 11 11 10 9 8 8 6 5 6 5 5 8 8 8 7 8 8 8 8 9 9 8 10 8 9 10 9 10 12 14 15 12
15 14 14 12 12 11 10 10 11 11 10 9 10 8 8 5 5 6 6 5 5 6 8 8 9 10 10 10 9 7 8 9 8 12 10 9 9 10 10 11 12 16 14
16 16 14 12 11 10 10 10 10 10 9 8 7 7 7 7 6 6 5 5 5 6 8 8 9 10 10 10 10 8 10 10 10 10 11 10 9 10 9 11 10 12 17
16 15 13 13 11 10 10 10 9 9 8 7 6 6 6 6 5 5 6 6 6 7 8 9 9 10 11 11 11 10 11 12 9 10 12 12 10 11 10 11 10 10 12
16 15 13 12 11 10 9 9 9 8 7 6 6 6 5 5 5 5 5 6 6 7 8 9 10 11 12 13 12 13 13 12 13 13 13 15 15 11 10 11 11 11 11
16 15 14 13 12 11 10 9 8 7 6 5 5 5 4 4 5 5 6 6 7 7 8 9 11 12 13 13 14 14 13 14 15 15 15 15 11 14 12 10 14 12 14
16 15 14 13 12 11 10 9 8 7 6 5 4 4 4 4 4 5 6 7 7 8 9 10 11 13 13 13 14 14 14 15 15 15 15 16 15 14 12 12 12 13 13
16 15 13 13 12 11 10 9 8 7 5 4 4 4 4 5 5 5 6 7 8 9 10 11 12 13 13 13 14 13 15 15 15 16 15 15 14 15 14 14 15 13 14
16 15 14 12 12 11 10 9 8 7 5 4 3 3 3 4 4 5 6 8 8 9 11 12 12 12 12 10 12 14 15 16 17 16 15 14 16 24 22 13 13 16 14
15 14 13 13 12 12 10 9 8 7 5 4 3 2 3 4 5 6 7 9 10 11 12 13 13 11 10 19 21 18 14 16 16 16 15 14 19 17 24 26 30 26 18
13 13 13 12 11 11 10 10 8 7 5 3 1 1 3 4 5 7 8 10 11 12 12 13 13 13 13 21 22 22 13 15 15 16 14 14 12 18 16 23 27 24 31
8 9 9 10 10 10 10 9 8 6 4 3 0 2 4 5 7 8 9 11 11 12 12 13 13 13 12 21 21 22 15 14 15 15 15 16 16 17 21 18 17 17 16
8 8 9 10 11 11 10 9 7 6 4 1 2 3 4 6 8 9 11 11 11 11 11 12 14 14 13 20 20 19 14 14 16 14 15 17 18 24 30 19 19 21 18
9 10 11 11 11 10 9 8 6 4 2 1 3 3 5 6 9 10 11 11 11 12 11 13 13 17 13 18 20 18 11 14 13 14 15 23 23 30 30 22 19 19 17
12 11 11 10 10 9 8 7 5 4 2 2 3 4 6 8 9 10 11 11 12 12 12 13 12 13 13 13 21 22 12 12 13 12 13 12 28 30 33 32 16 18 22
11 10 10 10 9 8 6 6 4 3 1 2 4 6 7 7 7 9 9 11 12 12 12 12 11 9 11 17 19 23 24 24 15 15 13 15 28 32 32 23 30 31 25
9 8 9 10 8 6 5 5 4 2 2 4 5 7 8 9 8 9 10 10 10 10 10 10 10 9 9 10 21 24 27 26 18 13 23 25 31 29 19 27 29 26 12
8 8 9 9 8 6 4 3 3 2 3 5 7 7 8 10 10 8 8 8 9 9 9 10 10 10 10 10 10 12 13 20 16 19 12 21 23 22 23 17 15 11 11
8 8 7 7 8 6 4 4 1 1 4 5 6 8 7 9 10 9 8 8 10 10 10 10 10 11 11 12 24 23 16 15 18 22 12 11 11 12 12 12 12 12 11
7 7 6 6 7 5 4 3 1 2 4 6 6 7 7 8 8 8 9 13 17 18 19 20 16 10 20 26 28 29 31 30 30 12 11 11 11 12 13 13 13 12 15
Wind_Direction
139 117 108 103 98 88 87 90 102 116 121 121 111 104 102 96 84 73 64 53 43 39 32 21 16 8 1 359 353 345 341 331 336 317 313 304 278 323 323 342 324 311 301
154 131 121 105 91 90 89 86 83 87 88 91 91 96 96 89 89 81 65 57 46 36 32 20 11 9 354 359 354 350 341 330 338 327 313 331 299 340 335 317 306 306 305
156 144 131 116 103 91 89 87 85 90 94 103 107 105 107 102 86 71 71 48 47 35 28 21 9 6 356 360 352 350 344 332 329 346 321 324 322 314 309 309 289 332 315
157 143 135 121 106 100 96 97 93 94 90 89 87 86 92 92 80 75 57 59 46 41 22 14 10 7 356 1 347 352 339 333 325 327 328 310 306 309 308 303 310 305 318
154 150 135 124 111 107 100 97 93 89 85 86 94 99 101 97 80 68 56 50 44 35 24 8 8 6 3 356 346 340 338 331 327 326 320 310 306 309 309 308 308 297 298
158 146 136 129 117 115 109 104 101 94 89 86 85 86 84 78 74 56 41 26 30 22 28 3 4 2 357 348 340 336 329 322 317 318 310 315 314 310 310 302 304 300 300
159 154 151 142 135 129 121 115 105 97 90 87 83 80 76 71 66 49 37 22 16 16 13 2 356 353 346 341 336 331 317 320 315 310 311 308 302 305 301 298 300 301 304
164 165 157 148 139 137 128 120 111 104 97 90 84 74 67 62 56 44 28 22 14 8 0 354 350 346 340 336 330 318 311 309 313 302 309 301 297 302 299 299 305 302 302
169 168 157 152 145 142 133 123 118 110 101 94 87 75 68 59 49 40 31 14 9 358 356 348 342 336 329 327 322 316 310 314 308 310 302 299 302 296 303 294 294 302 303
169 164 163 155 150 139 132 130 122 114 106 96 84 76 64 54 43 37 23 10 359 359 347 340 333 327 324 323 322 313 314 309 309 305 306 302 301 303 295 295 298 296 293
170 166 166 157 147 145 145 133 128 126 115 102 93 77 61 47 38 26 8 3 351 350 336 333 327 323 322 321 317 313 308 311 308 304 302 303 303 300 304 304 299 293 290
172 169 163 158 160 159 150 146 140 134 117 104 93 79 57 32 23 12 1 351 345 338 333 327 321 318 314 315 312 309 308 313 308 307 305 302 306 303 303 300 299 301 302
170 170 166 170 172 164 159 154 149 137 127 116 99 76 48 24 7 0 350 343 336 331 325 321 315 310 312 310 309 305 319 311 309 307 306 305 303 304 301 303 306 296 292
175 174 172 178 174 169 164 159 149 144 132 119 93 64 32 9 353 343 336 332 329 321 320 312 309 307 308 311 304 325 314 310 308 307 303 299 304 304 312 299 294 297 304
179 179 179 180 175 172 166 162 150 149 138 121 90 52 8 343 333 330 327 326 322 317 310 308 304 306 309 302 326 313 313 309 307 301 299 302 305 303 298 303 306 308 296
182 185 184 182 178 174 169 159 158 146 141 123 98 38 325 325 331 330 327 322 317 311 307 303 304 304 304 315 315 317 309 309 303 300 305 305 303 305 312 313 306 302 303
186 185 186 185 176 170 166 169 158 144 135 126 97 338 330 325 331 327 322 316 311 308 306 306 308 310 314 314 316 317 310 301 302 304 309 307 311 318 311 298 306 310 309
166 170 172 167 156 153 160 144 140 137 135 134 267 320 319 326 330 323 312 313 312 310 309 308 312 312 309 315 317 315 304 306 303 308 311 312 316 308 303 316 313 313 298
127 138 143 145 146 148 140 147 139 134 143 124 315 316 327 327 320 313 315 312 311 309 310 311 311 308 310 314 314 315 308 306 308 314 314 311 304 307 321 317 314 309 307
106 121 125 130 144 142 147 147 137 135 134 48 307 316 323 313 308 312 312 312 311 310 311 308 306 308 309 313 313 316 307 306 308 309 306 306 310 318 322 318 315 312 310
115 121 132 140 133 141 146 132 132 142 116 263 310 317 312 308 309 309 310 314 313 311 305 306 310 310 308 306 318 314 310 307 314 311 309 312 314 320 319 320 319 308 314
125 129 129 125 133 139 136 136 145 128 192 315 322 315 310 310 307 308 310 313 309 306 308 310 308 306 311 320 316 317 319 318 315 312 311 311 318 320 321 325 315 319 323
130 136 135 135 134 134 145 149 129 131 357 328 309 307 308 307 317 316 310 309 309 309 309 309 312 314 323 316 315 321 318 320 317 316 313 321 318 322 325 319 321 324 313
145 145 145 150 148 144 151 114 102 51 320 302 305 308 311 318 314 310 306 305 307 307 308 313 313 316 317 315 318 314 316 317 320 315 313 318 322 325 319 320 316 312 310
146 157 162 154 149 149 136 108 89 315 301 305 309 315 319 319 310 305 307 303 299 304 305 301 308 313 312 314 316 320 322 322 317 324 319 323 324 318 318 316 313 313 312
150 156 143 144 134 144 133 143 192 272 300 310 320 321 314 309 305 308 304 299 303 307 307 305 302 303 306 311 317 322 323 323 326 328 326 321 317 318 318 317 316 316 318